Tracking 33199 objects as of 16-Feb-2026
HD Live streaming from Space Station
objects crossing your sky now

STARLINK-5683

Track STARLINK-5683 now!
10-day predictions
STARLINK-5683 is classified as:


NORAD ID: 55452
Int'l Code: 2023-015D
Perigee: 565.4 km
Apogee: 567.0 km
Inclination: 43.0 °
Period: 95.8 minutes
Semi major axis: 6937 km
RCS: Unknown
Launch date: February 2, 2023
Source: United States (US)
Launch site: AIR FORCE EASTERN TEST RANGE (AFETR)
Your satellite tracking list
Your tracking list is empty




NASA's NSSDC Master Catalog

Two Line Element Set (TLE):
1 55452U 23015D   26047.50674396 -.00000319  00000-0 -85203-5 0  9999
2 55452  43.0025  81.4256 0001197 268.2525  91.8180 15.02539758167568
Source of the keplerian elements: AFSPC